Regional Weather Roundup
Issued by NWS Sioux Falls, SD

Home | Current Version | Previous Version | Graphics & Text | Print | Product List | Glossary Off
Versions: 1 2 3 4 5 6 7 8 9 10 11 12 13 14 15 16 17 18 19 20 21 22 23 24 25 26 27 28 29 30 31 32 33 34 35 36 37 38 39 40 41 42 43 44 45 46 47 48 49 50

000
ASUS43 KFSD 251602
RWRFSD

WEATHER ROUNDUP FOR SE SOUTH DAKOTA/SW MINNESOTA/NW IOWA
NATIONAL WEATHER SERVICE SIOUX FALLS SD
1100 AM CDT FRI MAY 25 2018

NOTE: "FAIR" INDICATES FEW OR NO CLOUDS BELOW 12,000 FEET WITH NO
SIGNIFICANT WEATHER AND OR OBSTRUCTIONS TO VISIBILITY.


SDZ038>040-050-052>070-251700-
SOUTHEAST SOUTH DAKOTA

CITY           SKY/WX    TMP DP  RH WIND       PRES   REMARKS
BROOKINGS      SUNNY     84  59  42 SW5       29.81F
CHAMBERLAIN    MOSUNNY   81  65  58 SW3       29.83S
HURON          SUNNY     84  64  50 SW7       29.78F
MADISON        FAIR      81  63  54 SW7       29.83S
MITCHELL       MOSUNNY   85  65  51 W7        29.81S
SIOUX FALLS    MOSUNNY   84  66  54 CALM      29.82S
WINNER         FAIR      81  60  48 CALM      29.86F
YANKTON        SUNNY     80  64  58 CALM      29.84S
$$

MNZ071-072-080-081-089-090-097-098-251700-
SOUTHWEST MINNESOTA

CITY           SKY/WX    TMP DP  RH WIND       PRES   REMARKS
FAIRMONT       SUNNY     80  66  62 SW10      29.82F
JACKSON        SUNNY     79  63  57 W6        29.83F
LUVERNE        SUNNY     79  59  50 CALM      29.83F
MARSHALL       SUNNY     85  60  42 NW6       29.79S
MONTEVIDEO     SUNNY     88  55  33 N8        29.76F
PIPESTONE      SUNNY     82  59  44 CALM      29.83S
REDWOOD FALLS  SUNNY     82  64  54 SW5       29.78S
TRACY          SUNNY     86  58  37 N7        29.80S
WINDOM         SUNNY     82  55  39 CALM      29.81F
WORTHINGTON      N/A     82  62  50 CALM      29.83F
$$

IAZ001>003-012>014-020>022-031-032-NEZ013-014-SDZ071-251700-
NORTHWEST IOWA

CITY           SKY/WX    TMP DP  RH WIND       PRES   REMARKS
CHEROKEE       SUNNY     81  68  65 W6        29.84S
DENISON        SUNNY     79  66  65 SW9       29.87S
ESTHERVILLE    SUNNY     78  65  63 SW7       29.83R
ORANGE CITY    SUNNY     82  64  54 CALM      29.84S
SHELDON        SUNNY     82  63  51 CALM      29.82S
SIOUX CITY     SUNNY     82  66  58 SW3       29.83F
SPENCER        SUNNY     81  65  58 VRB6      29.83F
STORM LAKE     SUNNY     81  64  57 SW10      29.85S
$$

ABBREVIATIONS USED IN REMARKS
   TC - TEMPERATURE IN CELSIUS
  WCI - WIND CHILL INDEX
   HX - HEAT INDEX
  VSB - VISIBILITY




USA.gov is the U.S. government's official web portal to all federal, state and local government web resources and services.